owner,sensor,date,latitude,longitude,air_temperature,qcFlag 
COMPS,ioos:station:USF.COMPS:NFB:1,2008-12-01T00:00:00Z,25.0840,-81.0960,22.9,1111122 
COMPS,ioos:station:USF.COMPS:NFB:1,2008-12-01T00:06:00Z,25.0840,-81.0960,22.9,1111122 
COMPS,ioos:station:USF.COMPS:NFB:1,2008-12-01T00:12:00Z,25.0840,-81.0960,21.18,1111122 
COMPS,ioos:station:USF.COMPS:NFB:1,2008-12-01T00:18:00Z,25.0840,-81.0960,21.23,1111122 
COMPS,ioos:station:USF.COMPS:NFB:1,2008-12-01T00:24:00Z,25.0840,-81.0960,21.74,1111122 
COMPS,ioos:station:USF.COMPS:NFB:1,2008-12-01T00:30:00Z,25.0840,-81.0960,21.99,1111122 
COMPS,ioos:station:USF.COMPS:NFB:1,2008-12-01T00:36:00Z,25.0840,-81.0960,22.15,1111122 
COMPS,ioos:station:USF.COMPS:NFB:1,2008-12-01T00:42:00Z,25.0840,-81.0960,22.34,1111122 
COMPS,ioos:station:USF.COMPS:NFB:1,2008-12-01T00:48:00Z,25.0840,-81.0960,22.33,1111122 
COMPS,ioos:station:USF.COMPS:NFB:1,2008-12-01T00:54:00Z,25.0840,-81.0960,22.13,1111122 
COMPS,ioos:station:USF.COMPS:NFB:1,2008-12-01T01:00:00Z,25.0840,-81.0960,22.11,1111122 
COMPS,ioos:station:USF.COMPS:NFB:1,2008-12-01T01:06:00Z,25.0840,-81.0960,22.01,1111122 
COMPS,ioos:station:USF.COMPS:NFB:1,2008-12-01T01:12:00Z,25.0840,-81.0960,21.87,1111122 
COMPS,ioos:station:USF.COMPS:NFB:1,2008-12-01T01:18:00Z,25.0840,-81.0960,22.06,1111122 
COMPS,ioos:station:USF.COMPS:NFB:1,2008-12-01T01:24:00Z,25.0840,-81.0960,22.08,1111122 
COMPS,ioos:station:USF.COMPS:NFB:1,2008-12-01T01:30:00Z,25.0840,-81.0960,21.96,1111122 
COMPS,ioos:station:USF.COMPS:NFB:1,2008-12-01T01:36:00Z,25.0840,-81.0960,22.06,1111122 
COMPS,ioos:station:USF.COMPS:NFB:1,2008-12-01T01:42:00Z,25.0840,-81.0960,21.97,1111122 
COMPS,ioos:station:USF.COMPS:NFB:1,2008-12-01T01:48:00Z,25.0840,-81.0960,21.03,1111122 
COMPS,ioos:station:USF.COMPS:NFB:1,2008-12-01T01:54:00Z,25.0840,-81.0960,20.8,1111122 
COMPS,ioos:station:USF.COMPS:NFB:1,2008-12-01T02:00:00Z,25.0840,-81.0960,20.83,1111122 
COMPS,ioos:station:USF.COMPS:NFB:1,2008-12-01T02:06:00Z,25.0840,-81.0960,20.87,1111122 
COMPS,ioos:station:USF.COMPS:NFB:1,2008-12-01T02:12:00Z,25.0840,-81.0960,20.94,1111122 
COMPS,ioos:station:USF.COMPS:NFB:1,2008-12-01T02:18:00Z,25.0840,-81.0960,21.0,1111122 
COMPS,ioos:station:USF.COMPS:NFB:1,2008-12-01T02:24:00Z,25.0840,-81.0960,21.0,1111122 
COMPS,ioos:station:USF.COMPS:NFB:1,2008-12-01T02:30:00Z,25.0840,-81.0960,20.99,1111122 
COMPS,ioos:station:USF.COMPS:NFB:1,2008-12-01T02:36:00Z,25.0840,-81.0960,21.03,1111122 
COMPS,ioos:station:USF.COMPS:NFB:1,2008-12-01T02:42:00Z,25.0840,-81.0960,21.0,1111122 
COMPS,ioos:station:USF.COMPS:NFB:1,2008-12-01T02:48:00Z,25.0840,-81.0960,20.9,1111122 
COMPS,ioos:station:USF.COMPS:NFB:1,2008-12-01T02:54:00Z,25.0840,-81.0960,20.93,1111122 
COMPS,ioos:station:USF.COMPS:NFB:1,2008-12-01T03:00:00Z,25.0840,-81.0960,20.94,1111122 
COMPS,ioos:station:USF.COMPS:NFB:1,2008-12-01T03:06:00Z,25.0840,-81.0960,20.97,1111122 
COMPS,ioos:station:USF.COMPS:NFB:1,2008-12-01T03:12:00Z,25.0840,-81.0960,20.9,1111122 
COMPS,ioos:station:USF.COMPS:NFB:1,2008-12-01T03:18:00Z,25.0840,-81.0960,20.87,1111122 
COMPS,ioos:station:USF.COMPS:NFB:1,2008-12-01T03:24:00Z,25.0840,-81.0960,20.91,1111122 
COMPS,ioos:station:USF.COMPS:NFB:1,2008-12-01T03:30:00Z,25.0840,-81.0960,20.91,1111122 
COMPS,ioos:station:USF.COMPS:NFB:1,2008-12-01T03:36:00Z,25.0840,-81.0960,20.96,1111122 
COMPS,ioos:station:USF.COMPS:NFB:1,2008-12-01T03:42:00Z,25.0840,-81.0960,20.93,1111122 
COMPS,ioos:station:USF.COMPS:NFB:1,2008-12-01T03:48:00Z,25.0840,-81.0960,20.96,1111122 
COMPS,ioos:station:USF.COMPS:NFB:1,2008-12-01T03:54:00Z,25.0840,-81.0960,21.0,1111122 
COMPS,ioos:station:USF.COMPS:NFB:1,2008-12-01T04:00:00Z,25.0840,-81.0960,20.97,1111122 
COMPS,ioos:station:USF.COMPS:NFB:1,2008-12-01T04:06:00Z,25.0840,-81.0960,21.0,1111122 
COMPS,ioos:station:USF.COMPS:NFB:1,2008-12-01T04:12:00Z,25.0840,-81.0960,21.0,1111122 
COMPS,ioos:station:USF.COMPS:NFB:1,2008-12-01T04:18:00Z,25.0840,-81.0960,20.99,1111122 
COMPS,ioos:station:USF.COMPS:NFB:1,2008-12-01T04:24:00Z,25.0840,-81.0960,20.9,1111122 
COMPS,ioos:station:USF.COMPS:NFB:1,2008-12-01T04:30:00Z,25.0840,-81.0960,20.79,1111122 
COMPS,ioos:station:USF.COMPS:NFB:1,2008-12-01T04:36:00Z,25.0840,-81.0960,21.0,1111122 
COMPS,ioos:station:USF.COMPS:NFB:1,2008-12-01T04:42:00Z,25.0840,-81.0960,21.0,1111122 
COMPS,ioos:station:USF.COMPS:NFB:1,2008-12-01T04:48:00Z,25.0840,-81.0960,21.01,1111122 
COMPS,ioos:station:USF.COMPS:NFB:1,2008-12-01T04:54:00Z,25.0840,-81.0960,21.01,1111122 
COMPS,ioos:station:USF.COMPS:NFB:1,2008-12-01T05:00:00Z,25.0840,-81.0960,21.0,1111122 
COMPS,ioos:station:USF.COMPS:NFB:1,2008-12-01T05:06:00Z,25.0840,-81.0960,21.0,1111122 
COMPS,ioos:station:USF.COMPS:NFB:1,2008-12-01T05:12:00Z,25.0840,-81.0960,20.88,1111122 
COMPS,ioos:station:USF.COMPS:NFB:1,2008-12-01T05:18:00Z,25.0840,-81.0960,20.88,1111122 
COMPS,ioos:station:USF.COMPS:NFB:1,2008-12-01T05:24:00Z,25.0840,-81.0960,20.85,1111122 
COMPS,ioos:station:USF.COMPS:NFB:1,2008-12-01T05:30:00Z,25.0840,-81.0960,20.68,1111122 
COMPS,ioos:station:USF.COMPS:NFB:1,2008-12-01T05:36:00Z,25.0840,-81.0960,20.73,1111122 
COMPS,ioos:station:USF.COMPS:NFB:1,2008-12-01T05:42:00Z,25.0840,-81.0960,20.75,1111122 
COMPS,ioos:station:USF.COMPS:NFB:1,2008-12-01T05:48:00Z,25.0840,-81.0960,20.78,1111122 
COMPS,ioos:station:USF.COMPS:NFB:1,2008-12-01T05:54:00Z,25.0840,-81.0960,20.81,1111122 
COMPS,ioos:station:USF.COMPS:NFB:1,2008-12-01T06:00:00Z,25.0840,-81.0960,20.74,1111122 
COMPS,ioos:station:USF.COMPS:NFB:1,2008-12-01T06:06:00Z,25.0840,-81.0960,20.69,1111122 
COMPS,ioos:station:USF.COMPS:NFB:1,2008-12-01T06:12:00Z,25.0840,-81.0960,20.64,1111122 
COMPS,ioos:station:USF.COMPS:NFB:1,2008-12-01T06:18:00Z,25.0840,-81.0960,20.64,1111122 
COMPS,ioos:station:USF.COMPS:NFB:1,2008-12-01T06:24:00Z,25.0840,-81.0960,20.67,1111122 
COMPS,ioos:station:USF.COMPS:NFB:1,2008-12-01T06:30:00Z,25.0840,-81.0960,20.51,1111122 
COMPS,ioos:station:USF.COMPS:NFB:1,2008-12-01T06:36:00Z,25.0840,-81.0960,20.66,1111122 
COMPS,ioos:station:USF.COMPS:NFB:1,2008-12-01T06:42:00Z,25.0840,-81.0960,20.58,1111122 
COMPS,ioos:station:USF.COMPS:NFB:1,2008-12-01T06:48:00Z,25.0840,-81.0960,20.61,1111122 
COMPS,ioos:station:USF.COMPS:NFB:1,2008-12-01T06:54:00Z,25.0840,-81.0960,20.65,1111122 
COMPS,ioos:station:USF.COMPS:NFB:1,2008-12-01T07:00:00Z,25.0840,-81.0960,20.72,1111122 
COMPS,ioos:station:USF.COMPS:NFB:1,2008-12-01T07:06:00Z,25.0840,-81.0960,20.92,1111122 
COMPS,ioos:station:USF.COMPS:NFB:1,2008-12-01T07:12:00Z,25.0840,-81.0960,21.01,1111122 
COMPS,ioos:station:USF.COMPS:NFB:1,2008-12-01T07:18:00Z,25.0840,-81.0960,20.92,1111122 
COMPS,ioos:station:USF.COMPS:NFB:1,2008-12-01T07:24:00Z,25.0840,-81.0960,20.98,1111122 
COMPS,ioos:station:USF.COMPS:NFB:1,2008-12-01T07:30:00Z,25.0840,-81.0960,20.96,1111122 
COMPS,ioos:station:USF.COMPS:NFB:1,2008-12-01T07:36:00Z,25.0840,-81.0960,21.13,1111122 
COMPS,ioos:station:USF.COMPS:NFB:1,2008-12-01T07:42:00Z,25.0840,-81.0960,21.15,1111122 
COMPS,ioos:station:USF.COMPS:NFB:1,2008-12-01T07:48:00Z,25.0840,-81.0960,21.14,1111122 
COMPS,ioos:station:USF.COMPS:NFB:1,2008-12-01T07:54:00Z,25.0840,-81.0960,21.14,1111122 
COMPS,ioos:station:USF.COMPS:NFB:1,2008-12-01T08:00:00Z,25.0840,-81.0960,21.13,1111122 
COMPS,ioos:station:USF.COMPS:NFB:1,2008-12-01T08:06:00Z,25.0840,-81.0960,21.22,1111122 
COMPS,ioos:station:USF.COMPS:NFB:1,2008-12-01T08:12:00Z,25.0840,-81.0960,21.24,1111122 
COMPS,ioos:station:USF.COMPS:NFB:1,2008-12-01T08:18:00Z,25.0840,-81.0960,21.27,1111122 
COMPS,ioos:station:USF.COMPS:NFB:1,2008-12-01T08:24:00Z,25.0840,-81.0960,21.3,1111122 
COMPS,ioos:station:USF.COMPS:NFB:1,2008-12-01T08:30:00Z,25.0840,-81.0960,21.28,1111122 
COMPS,ioos:station:USF.COMPS:NFB:1,2008-12-01T08:36:00Z,25.0840,-81.0960,21.4,1111122 
COMPS,ioos:station:USF.COMPS:NFB:1,2008-12-01T08:42:00Z,25.0840,-81.0960,21.41,1111122 
COMPS,ioos:station:USF.COMPS:NFB:1,2008-12-01T08:48:00Z,25.0840,-81.0960,21.43,1111122 
COMPS,ioos:station:USF.COMPS:NFB:1,2008-12-01T08:54:00Z,25.0840,-81.0960,21.4,1111122 
COMPS,ioos:station:USF.COMPS:NFB:1,2008-12-01T09:00:00Z,25.0840,-81.0960,21.41,1111122 
COMPS,ioos:station:USF.COMPS:NFB:1,2008-12-01T09:06:00Z,25.0840,-81.0960,21.4,1111122 
COMPS,ioos:station:USF.COMPS:NFB:1,2008-12-01T09:12:00Z,25.0840,-81.0960,21.4,1111122 
COMPS,ioos:station:USF.COMPS:NFB:1,2008-12-01T09:18:00Z,25.0840,-81.0960,21.4,1111122 
COMPS,ioos:station:USF.COMPS:NFB:1,2008-12-01T09:24:00Z,25.0840,-81.0960,21.4,1111122 
COMPS,ioos:station:USF.COMPS:NFB:1,2008-12-01T09:30:00Z,25.0840,-81.0960,21.29,1111122 
COMPS,ioos:station:USF.COMPS:NFB:1,2008-12-01T09:36:00Z,25.0840,-81.0960,21.4,1111122 
COMPS,ioos:station:USF.COMPS:NFB:1,2008-12-01T09:42:00Z,25.0840,-81.0960,21.4,1111122 
COMPS,ioos:station:USF.COMPS:NFB:1,2008-12-01T09:48:00Z,25.0840,-81.0960,21.42,1111122 
COMPS,ioos:station:USF.COMPS:NFB:1,2008-12-01T09:54:00Z,25.0840,-81.0960,21.4,1111122 
COMPS,ioos:station:USF.COMPS:NFB:1,2008-12-01T10:00:00Z,25.0840,-81.0960,21.38,1111122 
COMPS,ioos:station:USF.COMPS:NFB:1,2008-12-01T10:06:00Z,25.0840,-81.0960,21.29,1111122 
COMPS,ioos:station:USF.COMPS:NFB:1,2008-12-01T10:12:00Z,25.0840,-81.0960,21.34,1111122 
COMPS,ioos:station:USF.COMPS:NFB:1,2008-12-01T10:18:00Z,25.0840,-81.0960,21.4,1111122 
COMPS,ioos:station:USF.COMPS:NFB:1,2008-12-01T10:24:00Z,25.0840,-81.0960,21.4,1111122 
COMPS,ioos:station:USF.COMPS:NFB:1,2008-12-01T10:30:00Z,25.0840,-81.0960,21.28,1111122 
COMPS,ioos:station:USF.COMPS:NFB:1,2008-12-01T10:36:00Z,25.0840,-81.0960,21.49,1111122 
COMPS,ioos:station:USF.COMPS:NFB:1,2008-12-01T10:42:00Z,25.0840,-81.0960,21.54,1111122 
COMPS,ioos:station:USF.COMPS:NFB:1,2008-12-01T10:48:00Z,25.0840,-81.0960,21.54,1111122 
COMPS,ioos:station:USF.COMPS:NFB:1,2008-12-01T10:54:00Z,25.0840,-81.0960,21.48,1111122 
COMPS,ioos:station:USF.COMPS:NFB:1,2008-12-01T11:00:00Z,25.0840,-81.0960,21.41,1111122 
COMPS,ioos:station:USF.COMPS:NFB:1,2008-12-01T11:06:00Z,25.0840,-81.0960,21.4,1111122 
COMPS,ioos:station:USF.COMPS:NFB:1,2008-12-01T11:12:00Z,25.0840,-81.0960,21.4,1111122 
COMPS,ioos:station:USF.COMPS:NFB:1,2008-12-01T11:18:00Z,25.0840,-81.0960,21.4,1111122 
COMPS,ioos:station:USF.COMPS:NFB:1,2008-12-01T11:24:00Z,25.0840,-81.0960,21.4,1111122 
COMPS,ioos:station:USF.COMPS:NFB:1,2008-12-01T11:30:00Z,25.0840,-81.0960,21.29,1111122 
COMPS,ioos:station:USF.COMPS:NFB:1,2008-12-01T11:36:00Z,25.0840,-81.0960,21.4,1111122 
COMPS,ioos:station:USF.COMPS:NFB:1,2008-12-01T11:42:00Z,25.0840,-81.0960,21.4,1111122 
COMPS,ioos:station:USF.COMPS:NFB:1,2008-12-01T11:48:00Z,25.0840,-81.0960,21.4,1111122 
COMPS,ioos:station:USF.COMPS:NFB:1,2008-12-01T11:54:00Z,25.0840,-81.0960,21.4,1111122 
COMPS,ioos:station:USF.COMPS:NFB:1,2008-12-01T14:00:00Z,25.0840,-81.0960,19.82,1111122 
COMPS,ioos:station:USF.COMPS:NFB:1,2008-12-01T14:06:00Z,25.0840,-81.0960,19.82,1111122 
COMPS,ioos:station:USF.COMPS:NFB:1,2008-12-01T14:12:00Z,25.0840,-81.0960,19.86,1111122 
COMPS,ioos:station:USF.COMPS:NFB:1,2008-12-01T14:18:00Z,25.0840,-81.0960,19.93,1111122 
COMPS,ioos:station:USF.COMPS:NFB:1,2008-12-01T14:24:00Z,25.0840,-81.0960,19.94,1111122 
COMPS,ioos:station:USF.COMPS:NFB:1,2008-12-01T14:30:00Z,25.0840,-81.0960,19.81,1111122 
COMPS,ioos:station:USF.COMPS:NFB:1,2008-12-01T14:36:00Z,25.0840,-81.0960,19.86,1111122 
COMPS,ioos:station:USF.COMPS:NFB:1,2008-12-01T14:42:00Z,25.0840,-81.0960,19.9,1111122 
COMPS,ioos:station:USF.COMPS:NFB:1,2008-12-01T14:48:00Z,25.0840,-81.0960,19.92,1111122 
COMPS,ioos:station:USF.COMPS:NFB:1,2008-12-01T14:54:00Z,25.0840,-81.0960,19.9,1111122 
COMPS,ioos:station:USF.COMPS:NFB:1,2008-12-01T15:00:00Z,25.0840,-81.0960,19.91,1111122 
COMPS,ioos:station:USF.COMPS:NFB:1,2008-12-01T15:06:00Z,25.0840,-81.0960,19.86,1111122 
COMPS,ioos:station:USF.COMPS:NFB:1,2008-12-01T15:12:00Z,25.0840,-81.0960,19.93,1111122 
COMPS,ioos:station:USF.COMPS:NFB:1,2008-12-01T15:18:00Z,25.0840,-81.0960,19.97,1111122 
COMPS,ioos:station:USF.COMPS:NFB:1,2008-12-01T15:24:00Z,25.0840,-81.0960,20.06,1111122 
COMPS,ioos:station:USF.COMPS:NFB:1,2008-12-01T15:30:00Z,25.0840,-81.0960,20.0,1111122 
COMPS,ioos:station:USF.COMPS:NFB:1,2008-12-01T15:36:00Z,25.0840,-81.0960,20.16,1111122 
COMPS,ioos:station:USF.COMPS:NFB:1,2008-12-01T15:42:00Z,25.0840,-81.0960,20.18,1111122 
COMPS,ioos:station:USF.COMPS:NFB:1,2008-12-01T15:48:00Z,25.0840,-81.0960,20.18,1111122 
COMPS,ioos:station:USF.COMPS:NFB:1,2008-12-01T15:54:00Z,25.0840,-81.0960,20.21,1111122 
COMPS,ioos:station:USF.COMPS:NFB:1,2008-12-01T16:00:00Z,25.0840,-81.0960,20.3,1111122 
COMPS,ioos:station:USF.COMPS:NFB:1,2008-12-01T16:06:00Z,25.0840,-81.0960,20.34,1111122 
COMPS,ioos:station:USF.COMPS:NFB:1,2008-12-01T16:12:00Z,25.0840,-81.0960,20.47,1111122 
COMPS,ioos:station:USF.COMPS:NFB:1,2008-12-01T16:18:00Z,25.0840,-81.0960,20.69,1111122 
COMPS,ioos:station:USF.COMPS:NFB:1,2008-12-01T16:24:00Z,25.0840,-81.0960,20.84,1111122 
COMPS,ioos:station:USF.COMPS:NFB:1,2008-12-01T16:30:00Z,25.0840,-81.0960,20.81,1111122 
COMPS,ioos:station:USF.COMPS:NFB:1,2008-12-01T16:36:00Z,25.0840,-81.0960,20.79,1111122 
COMPS,ioos:station:USF.COMPS:NFB:1,2008-12-01T16:42:00Z,25.0840,-81.0960,20.76,1111122 
COMPS,ioos:station:USF.COMPS:NFB:1,2008-12-01T16:48:00Z,25.0840,-81.0960,20.77,1111122 
COMPS,ioos:station:USF.COMPS:NFB:1,2008-12-01T16:54:00Z,25.0840,-81.0960,20.81,1111122 
COMPS,ioos:station:USF.COMPS:NFB:1,2008-12-01T17:00:00Z,25.0840,-81.0960,20.78,1111122 
COMPS,ioos:station:USF.COMPS:NFB:1,2008-12-01T17:06:00Z,25.0840,-81.0960,20.67,1111122 
COMPS,ioos:station:USF.COMPS:NFB:1,2008-12-01T17:12:00Z,25.0840,-81.0960,20.61,1111122 
COMPS,ioos:station:USF.COMPS:NFB:1,2008-12-01T17:18:00Z,25.0840,-81.0960,20.56,1111122 
COMPS,ioos:station:USF.COMPS:NFB:1,2008-12-01T17:24:00Z,25.0840,-81.0960,20.49,1111122 
COMPS,ioos:station:USF.COMPS:NFB:1,2008-12-01T17:30:00Z,25.0840,-81.0960,20.37,1111122 
COMPS,ioos:station:USF.COMPS:NFB:1,2008-12-01T17:36:00Z,25.0840,-81.0960,20.52,1111122 
COMPS,ioos:station:USF.COMPS:NFB:1,2008-12-01T17:42:00Z,25.0840,-81.0960,20.5,1111122 
COMPS,ioos:station:USF.COMPS:NFB:1,2008-12-01T17:48:00Z,25.0840,-81.0960,20.46,1111122 
COMPS,ioos:station:USF.COMPS:NFB:1,2008-12-01T17:54:00Z,25.0840,-81.0960,20.39,1111122 
COMPS,ioos:station:USF.COMPS:NFB:1,2008-12-01T18:00:00Z,25.0840,-81.0960,20.31,1111122 
COMPS,ioos:station:USF.COMPS:NFB:1,2008-12-01T18:06:00Z,25.0840,-81.0960,20.31,1111122 
COMPS,ioos:station:USF.COMPS:NFB:1,2008-12-01T18:12:00Z,25.0840,-81.0960,20.21,1111122 
COMPS,ioos:station:USF.COMPS:NFB:1,2008-12-01T18:18:00Z,25.0840,-81.0960,20.3,1111122 
COMPS,ioos:station:USF.COMPS:NFB:1,2008-12-01T18:24:00Z,25.0840,-81.0960,20.29,1111122 
COMPS,ioos:station:USF.COMPS:NFB:1,2008-12-01T18:30:00Z,25.0840,-81.0960,20.17,1111122 
COMPS,ioos:station:USF.COMPS:NFB:1,2008-12-01T18:36:00Z,25.0840,-81.0960,20.47,1111122 
COMPS,ioos:station:USF.COMPS:NFB:1,2008-12-01T18:42:00Z,25.0840,-81.0960,20.49,1111122 
COMPS,ioos:station:USF.COMPS:NFB:1,2008-12-01T18:48:00Z,25.0840,-81.0960,20.64,1111122 
COMPS,ioos:station:USF.COMPS:NFB:1,2008-12-01T18:54:00Z,25.0840,-81.0960,20.79,1111122 
COMPS,ioos:station:USF.COMPS:NFB:1,2008-12-01T19:00:00Z,25.0840,-81.0960,20.84,1111122 
COMPS,ioos:station:USF.COMPS:NFB:1,2008-12-01T19:06:00Z,25.0840,-81.0960,20.86,1111122 
COMPS,ioos:station:USF.COMPS:NFB:1,2008-12-01T19:12:00Z,25.0840,-81.0960,20.88,1111122 
COMPS,ioos:station:USF.COMPS:NFB:1,2008-12-01T19:18:00Z,25.0840,-81.0960,20.96,1111122 
COMPS,ioos:station:USF.COMPS:NFB:1,2008-12-01T19:24:00Z,25.0840,-81.0960,20.88,1111122 
COMPS,ioos:station:USF.COMPS:NFB:1,2008-12-01T19:30:00Z,25.0840,-81.0960,20.89,1111122 
COMPS,ioos:station:USF.COMPS:NFB:1,2008-12-01T19:36:00Z,25.0840,-81.0960,21.07,1111122 
COMPS,ioos:station:USF.COMPS:NFB:1,2008-12-01T19:42:00Z,25.0840,-81.0960,21.01,1111122 
COMPS,ioos:station:USF.COMPS:NFB:1,2008-12-01T19:48:00Z,25.0840,-81.0960,21.09,1111122 
COMPS,ioos:station:USF.COMPS:NFB:1,2008-12-01T19:54:00Z,25.0840,-81.0960,21.27,1111122 
COMPS,ioos:station:USF.COMPS:NFB:1,2008-12-01T20:00:00Z,25.0840,-81.0960,21.32,1111122 
COMPS,ioos:station:USF.COMPS:NFB:1,2008-12-01T20:06:00Z,25.0840,-81.0960,21.3,1111122 
COMPS,ioos:station:USF.COMPS:NFB:1,2008-12-01T20:12:00Z,25.0840,-81.0960,21.29,1111122 
COMPS,ioos:station:USF.COMPS:NFB:1,2008-12-01T20:18:00Z,25.0840,-81.0960,21.3,1111122 
COMPS,ioos:station:USF.COMPS:NFB:1,2008-12-01T20:24:00Z,25.0840,-81.0960,21.32,1111122 
COMPS,ioos:station:USF.COMPS:NFB:1,2008-12-01T20:30:00Z,25.0840,-81.0960,21.34,1111122 
COMPS,ioos:station:USF.COMPS:NFB:1,2008-12-01T20:36:00Z,25.0840,-81.0960,21.5,1111122 
COMPS,ioos:station:USF.COMPS:NFB:1,2008-12-01T20:42:00Z,25.0840,-81.0960,21.53,1111122 
COMPS,ioos:station:USF.COMPS:NFB:1,2008-12-01T20:48:00Z,25.0840,-81.0960,21.54,1111122 
COMPS,ioos:station:USF.COMPS:NFB:1,2008-12-01T20:54:00Z,25.0840,-81.0960,21.6,1111122 
COMPS,ioos:station:USF.COMPS:NFB:1,2008-12-01T21:00:00Z,25.0840,-81.0960,21.62,1111122 
COMPS,ioos:station:USF.COMPS:NFB:1,2008-12-01T21:06:00Z,25.0840,-81.0960,21.53,1111122 
COMPS,ioos:station:USF.COMPS:NFB:1,2008-12-01T21:12:00Z,25.0840,-81.0960,21.49,1111122 
COMPS,ioos:station:USF.COMPS:NFB:1,2008-12-01T21:18:00Z,25.0840,-81.0960,21.32,1111122 
COMPS,ioos:station:USF.COMPS:NFB:1,2008-12-01T21:24:00Z,25.0840,-81.0960,21.07,1111122 
COMPS,ioos:station:USF.COMPS:NFB:1,2008-12-01T21:30:00Z,25.0840,-81.0960,20.89,1111122 
COMPS,ioos:station:USF.COMPS:NFB:1,2008-12-01T21:36:00Z,25.0840,-81.0960,21.13,1111122 
COMPS,ioos:station:USF.COMPS:NFB:1,2008-12-01T21:42:00Z,25.0840,-81.0960,21.13,1111122 
COMPS,ioos:station:USF.COMPS:NFB:1,2008-12-01T21:48:00Z,25.0840,-81.0960,21.04,1111122 
COMPS,ioos:station:USF.COMPS:NFB:1,2008-12-01T21:54:00Z,25.0840,-81.0960,21.05,1111122 
COMPS,ioos:station:USF.COMPS:NFB:1,2008-12-01T22:00:00Z,25.0840,-81.0960,21.08,1111122 
COMPS,ioos:station:USF.COMPS:NFB:1,2008-12-01T22:06:00Z,25.0840,-81.0960,21.14,1111122 
COMPS,ioos:station:USF.COMPS:NFB:1,2008-12-01T22:12:00Z,25.0840,-81.0960,21.15,1111122 
COMPS,ioos:station:USF.COMPS:NFB:1,2008-12-01T22:18:00Z,25.0840,-81.0960,21.14,1111122 
COMPS,ioos:station:USF.COMPS:NFB:1,2008-12-01T22:24:00Z,25.0840,-81.0960,21.11,1111122 
COMPS,ioos:station:USF.COMPS:NFB:1,2008-12-01T22:30:00Z,25.0840,-81.0960,20.99,1111122 
COMPS,ioos:station:USF.COMPS:NFB:1,2008-12-01T22:36:00Z,25.0840,-81.0960,21.1,1111122 
COMPS,ioos:station:USF.COMPS:NFB:1,2008-12-01T22:42:00Z,25.0840,-81.0960,21.16,1111122 
COMPS,ioos:station:USF.COMPS:NFB:1,2008-12-01T22:48:00Z,25.0840,-81.0960,21.15,1111122 
COMPS,ioos:station:USF.COMPS:NFB:1,2008-12-01T22:54:00Z,25.0840,-81.0960,21.13,1111122 
COMPS,ioos:station:USF.COMPS:NFB:1,2008-12-01T23:00:00Z,25.0840,-81.0960,21.13,1111122 
COMPS,ioos:station:USF.COMPS:NFB:1,2008-12-01T23:06:00Z,25.0840,-81.0960,21.13,1111122 
COMPS,ioos:station:USF.COMPS:NFB:1,2008-12-01T23:12:00Z,25.0840,-81.0960,21.11,1111122 
COMPS,ioos:station:USF.COMPS:NFB:1,2008-12-01T23:18:00Z,25.0840,-81.0960,21.03,1111122 
COMPS,ioos:station:USF.COMPS:NFB:1,2008-12-01T23:24:00Z,25.0840,-81.0960,21.02,1111122 
COMPS,ioos:station:USF.COMPS:NFB:1,2008-12-01T23:30:00Z,25.0840,-81.0960,20.9,1111122 
COMPS,ioos:station:USF.COMPS:NFB:1,2008-12-01T23:36:00Z,25.0840,-81.0960,21.02,1111122 
COMPS,ioos:station:USF.COMPS:NFB:1,2008-12-01T23:42:00Z,25.0840,-81.0960,21.05,1111122 
COMPS,ioos:station:USF.COMPS:NFB:1,2008-12-01T23:48:00Z,25.0840,-81.0960,21.05,1111122 
COMPS,ioos:station:USF.COMPS:NFB:1,2008-12-01T23:54:00Z,25.0840,-81.0960,21.08,1111122 
COMPS,ioos:station:USF.COMPS:NFB:1,2008-12-02T00:00:00Z,25.0840,-81.0960,21.03,1111122 
COMPS,ioos:station:USF.COMPS:NFB:1,2008-12-02T00:06:00Z,25.0840,-81.0960,21.02,1111122 
COMPS,ioos:station:USF.COMPS:NFB:1,2008-12-02T00:12:00Z,25.0840,-81.0960,21.04,1111122 
COMPS,ioos:station:USF.COMPS:NFB:1,2008-12-02T00:18:00Z,25.0840,-81.0960,20.97,1111122 
COMPS,ioos:station:USF.COMPS:NFB:1,2008-12-02T00:24:00Z,25.0840,-81.0960,20.87,1111122 
COMPS,ioos:station:USF.COMPS:NFB:1,2008-12-02T00:30:00Z,25.0840,-81.0960,20.8,1111122 
COMPS,ioos:station:USF.COMPS:NFB:1,2008-12-02T00:36:00Z,25.0840,-81.0960,20.86,1111122 
COMPS,ioos:station:USF.COMPS:NFB:1,2008-12-02T00:42:00Z,25.0840,-81.0960,20.87,1111122 
COMPS,ioos:station:USF.COMPS:NFB:1,2008-12-02T00:48:00Z,25.0840,-81.0960,20.86,1111122 
COMPS,ioos:station:USF.COMPS:NFB:1,2008-12-02T00:54:00Z,25.0840,-81.0960,20.86,1111122 
COMPS,ioos:station:USF.COMPS:NFB:1,2008-12-02T01:00:00Z,25.0840,-81.0960,20.86,1111122 
COMPS,ioos:station:USF.COMPS:NFB:1,2008-12-02T01:06:00Z,25.0840,-81.0960,20.88,1111122 
COMPS,ioos:station:USF.COMPS:NFB:1,2008-12-02T01:12:00Z,25.0840,-81.0960,20.98,1111122 
COMPS,ioos:station:USF.COMPS:NFB:1,2008-12-02T01:18:00Z,25.0840,-81.0960,20.72,1111122 
COMPS,ioos:station:USF.COMPS:NFB:1,2008-12-02T01:24:00Z,25.0840,-81.0960,20.28,1111122 
COMPS,ioos:station:USF.COMPS:NFB:1,2008-12-02T01:30:00Z,25.0840,-81.0960,20.11,1111122 
COMPS,ioos:station:USF.COMPS:NFB:1,2008-12-02T01:36:00Z,25.0840,-81.0960,20.18,1111122 
COMPS,ioos:station:USF.COMPS:NFB:1,2008-12-02T01:42:00Z,25.0840,-81.0960,20.18,1111122 
COMPS,ioos:station:USF.COMPS:NFB:1,2008-12-02T01:48:00Z,25.0840,-81.0960,20.17,1111122 
COMPS,ioos:station:USF.COMPS:NFB:1,2008-12-02T01:54:00Z,25.0840,-81.0960,20.05,1111122 
COMPS,ioos:station:USF.COMPS:NFB:1,2008-12-02T02:00:00Z,25.0840,-81.0960,20.05,1111122 
COMPS,ioos:station:USF.COMPS:NFB:1,2008-12-02T02:06:00Z,25.0840,-81.0960,20.05,1111122 
COMPS,ioos:station:USF.COMPS:NFB:1,2008-12-02T02:12:00Z,25.0840,-81.0960,20.14,1111122 
COMPS,ioos:station:USF.COMPS:NFB:1,2008-12-02T02:18:00Z,25.0840,-81.0960,20.1,1111122 
COMPS,ioos:station:USF.COMPS:NFB:1,2008-12-02T02:24:00Z,25.0840,-81.0960,20.07,1111122 
COMPS,ioos:station:USF.COMPS:NFB:1,2008-12-02T02:30:00Z,25.0840,-81.0960,19.9,1111122 
COMPS,ioos:station:USF.COMPS:NFB:1,2008-12-02T02:36:00Z,25.0840,-81.0960,19.91,1111122 
COMPS,ioos:station:USF.COMPS:NFB:1,2008-12-02T02:42:00Z,25.0840,-81.0960,19.91,1111122 
COMPS,ioos:station:USF.COMPS:NFB:1,2008-12-02T02:48:00Z,25.0840,-81.0960,19.89,1111122 
COMPS,ioos:station:USF.COMPS:NFB:1,2008-12-02T02:54:00Z,25.0840,-81.0960,19.95,1111122 
COMPS,ioos:station:USF.COMPS:NFB:1,2008-12-02T03:00:00Z,25.0840,-81.0960,20.09,1111122 
COMPS,ioos:station:USF.COMPS:NFB:1,2008-12-02T03:06:00Z,25.0840,-81.0960,20.21,1111122 
COMPS,ioos:station:USF.COMPS:NFB:1,2008-12-02T03:12:00Z,25.0840,-81.0960,20.2,1111122 
COMPS,ioos:station:USF.COMPS:NFB:1,2008-12-02T03:18:00Z,25.0840,-81.0960,20.18,1111122 
COMPS,ioos:station:USF.COMPS:NFB:1,2008-12-02T03:24:00Z,25.0840,-81.0960,20.06,1111122 
COMPS,ioos:station:USF.COMPS:NFB:1,2008-12-02T03:30:00Z,25.0840,-81.0960,19.92,1111122 
COMPS,ioos:station:USF.COMPS:NFB:1,2008-12-02T03:36:00Z,25.0840,-81.0960,20.05,1111122 
COMPS,ioos:station:USF.COMPS:NFB:1,2008-12-02T03:42:00Z,25.0840,-81.0960,20.16,1111122 
COMPS,ioos:station:USF.COMPS:NFB:1,2008-12-02T03:48:00Z,25.0840,-81.0960,20.18,1111122 
COMPS,ioos:station:USF.COMPS:NFB:1,2008-12-02T03:54:00Z,25.0840,-81.0960,20.19,1111122 
COMPS,ioos:station:USF.COMPS:NFB:1,2008-12-02T04:00:00Z,25.0840,-81.0960,20.2,1111122 
COMPS,ioos:station:USF.COMPS:NFB:1,2008-12-02T04:06:00Z,25.0840,-81.0960,20.22,1111122 
COMPS,ioos:station:USF.COMPS:NFB:1,2008-12-02T04:12:00Z,25.0840,-81.0960,20.18,1111122 
COMPS,ioos:station:USF.COMPS:NFB:1,2008-12-02T04:18:00Z,25.0840,-81.0960,20.18,1111122 
COMPS,ioos:station:USF.COMPS:NFB:1,2008-12-02T04:24:00Z,25.0840,-81.0960,20.13,1111122 
COMPS,ioos:station:USF.COMPS:NFB:1,2008-12-02T04:30:00Z,25.0840,-81.0960,19.92,1111122 
COMPS,ioos:station:USF.COMPS:NFB:1,2008-12-02T04:36:00Z,25.0840,-81.0960,19.89,1111122 
COMPS,ioos:station:USF.COMPS:NFB:1,2008-12-02T04:42:00Z,25.0840,-81.0960,19.79,1111122 
COMPS,ioos:station:USF.COMPS:NFB:1,2008-12-02T04:48:00Z,25.0840,-81.0960,19.68,1111122 
COMPS,ioos:station:USF.COMPS:NFB:1,2008-12-02T04:54:00Z,25.0840,-81.0960,19.66,1111122 
COMPS,ioos:station:USF.COMPS:NFB:1,2008-12-02T05:00:00Z,25.0840,-81.0960,19.84,1111122 
COMPS,ioos:station:USF.COMPS:NFB:1,2008-12-02T05:06:00Z,25.0840,-81.0960,19.91,1111122 